| time (UTC) | temp F | wind direction | speed MPH | gust MPH | rain 1hr in | rain 24hr in | rain mn in | humidity % | barometer mb |
| 20260902231559 | 95 | 140 | 0.0 | 7.0 | 0.00 | 0.00 | 0.00 | 54 | 1015.0 |
| 20260902230106 | 96 | 163 | 1.0 | 9.0 | 0.00 | 0.00 | 0.00 | 53 | 1015.0 |
| 20260902224618 | 96 | 198 | 1.0 | 9.0 | 0.00 | 0.00 | 0.00 | 53 | 1015.1 |
| 20260902223056 | 97 | 146 | 1.0 | 7.0 | 0.00 | 0.00 | 0.00 | 53 | 1015.1 |
| 20260902221553 | 97 | 188 | 1.0 | 10.0 | 0.00 | 0.00 | 0.00 | 53 | 1015.1 |
| 20260902220119 | 97 | 133 | 1.0 | 7.0 | 0.00 | 0.00 | 0.00 | 51 | 1015.3 |
| 20260902214557 | 97 | 0 | 2.0 | 10.0 | 0.00 | 0.00 | 0.00 | 50 | 1015.5 |
| 20260902213054 | 97 | 189 | 1.0 | 8.0 | 0.00 | 0.00 | 0.00 | 51 | 1015.7 |
| 20260902211602 | 96 | 32 | 2.0 | 8.0 | 0.00 | 0.00 | 0.00 | 50 | 1015.8 |
| 20260902210056 | 97 | 128 | 2.0 | 8.0 | 0.00 | 0.00 | 0.00 | 50 | 1015.9 |
| 20260902204600 | 96 | 161 | 1.0 | 8.0 | 0.00 | 0.00 | 0.00 | 51 | 1016.1 |
| 20260902203115 | 97 | 157 | 2.0 | 9.0 | 0.00 | 0.00 | 0.00 | 50 | 1016.2 |
| 20260902201556 | 97 | 195 | 1.0 | 7.0 | 0.00 | 0.00 | 0.00 | 51 | 1016.1 |
| 20260902200053 | 96 | 174 | 2.0 | 8.0 | 0.00 | 0.00 | 0.00 | 53 | 1016.4 |
| 20260902194555 | 95 | 180 | 2.0 | 8.0 | 0.00 | 0.00 | 0.00 | 53 | 1016.5 |
| 20260902193103 | 94 | 139 | 1.0 | 8.0 | 0.00 | 0.00 | 0.00 | 55 | 1016.7 |
| 20260902191604 | 95 | 142 | 3.0 | 11.0 | 0.00 | 0.00 | 0.00 | 55 | 1017.1 |
| 20260902190058 | 95 | 0 | 1.0 | 7.0 | 0.00 | 0.00 | 0.00 | 55 | 1017.2 |
| 20260902184627 | 93 | 96 | 1.0 | 8.0 | 0.00 | 0.00 | 0.00 | 57 | 1017.4 |
| 20260902183051 | 93 | 55 | 2.0 | 9.0 | 0.00 | 0.00 | 0.00 | 58 | 1017.6 |
| 20260902181601 | 93 | 212 | 2.0 | 10.0 | 0.00 | 0.00 | 0.00 | 57 | 1017.8 |
| 20260902174556 | 92 | 204 | 2.0 | 8.0 | 0.00 | 0.00 | 0.00 | 61 | 1018.2 |
| 20260902173052 | 92 | 212 | 1.0 | 4.0 | 0.00 | 0.00 | 0.00 | 61 | 1018.5 |
| 20260902171604 | 91 | 0 | 0.0 | 7.0 | 0.00 | 0.00 | 0.00 | 62 | 1018.7 |
| 20260902170056 | 91 | 219 | 3.0 | 9.0 | 0.00 | 0.00 | 0.00 | 62 | 1018.8 |
| 20260902164557 | 92 | 111 | 1.0 | 4.0 | 0.00 | 0.00 | 0.00 | 62 | 1019.1 |
| 20260902163059 | 91 | 137 | 1.0 | 6.0 | 0.00 | 0.00 | 0.00 | 62 | 1019.2 |
| 20260902161600 | 90 | 159 | 1.0 | 9.0 | 0.00 | 0.00 | 0.00 | 64 | 1019.3 |
| 20260902160105 | 89 | 180 | 1.0 | 7.0 | 0.00 | 0.00 | 0.00 | 65 | 1019.2 |
| 20260902154559 | 88 | 183 | 1.0 | 7.0 | 0.00 | 0.00 | 0.00 | 68 | 1019.2 |
| 20260902153059 | 87 | 168 | 1.0 | 4.0 | 0.00 | 0.00 | 0.00 | 69 | 1019.1 |
| 20260902151602 | 86 | 0 | 1.0 | 6.0 | 0.00 | 0.00 | 0.00 | 70 | 1019.1 |
| 20260902144601 | 84 | 0 | 0.0 | 5.0 | 0.00 | 0.00 | 0.00 | 72 | 1019.3 |
| 20260902143101 | 83 | 0 | 0.0 | 6.0 | 0.00 | 0.00 | 0.00 | 73 | 1019.2 |
| 20260902141553 | 82 | 196 | 1.0 | 5.0 | 0.00 | 0.00 | 0.00 | 74 | 1019.3 |
| 20260902140056 | 79 | 217 | 3.0 | 5.0 | 0.00 | 0.00 | 0.00 | 80 | 1019.3 |
| 20260902134611 | 76 | 0 | 0.0 | 1.0 | 0.00 | 0.00 | 0.00 | 91 | 1019.2 |
| 20260902133051 | 75 | 0 | 0.0 | 0.0 | 0.00 | 0.00 | 0.00 | 92 | 1019.3 |
| 20260902131607 | 73 | 0 | 0.0 | 0.0 | 0.00 | 0.00 | 0.00 | 93 | 1019.3 |
| 20260902124553 | 72 | 0 | 0.0 | 0.0 | 0.00 | 0.00 | 0.00 | 93 | 1019.1 |
| 20260902123104 | 72 | 0 | 0.0 | 0.0 | 0.00 | 0.00 | 0.00 | 93 | 1018.8 |
| 20260902121601 | 72 | 0 | 0.0 | 0.0 | 0.00 | 0.00 | 0.00 | 92 | 1018.7 |
| 20260902120059 | 72 | 0 | 0.0 | 0.0 | 0.00 | 0.00 | 0.00 | 92 | 1018.5 |
| 20260902114602 | 72 | 0 | 0.0 | 0.0 | 0.00 | 0.00 | 0.00 | 92 | 1018.5 |
| 20260902113104 | 72 | 0 | 0.0 | 0.0 | 0.00 | 0.00 | 0.00 | 91 | 1018.3 |
| 20260902111558 | 72 | 0 | 0.0 | 0.0 | 0.00 | 0.00 | 0.00 | 91 | 1018.1 |
| 20260902110104 | 72 | 0 | 0.0 | 0.0 | 0.00 | 0.00 | 0.00 | 91 | 1018.1 |
| 20260902104617 | 73 | 0 | 0.0 | 0.0 | 0.00 | 0.00 | 0.00 | 91 | 1018.0 |
| 20260902103058 | 73 | 0 | 0.0 | 0.0 | 0.00 | 0.00 | 0.00 | 91 | 1018.0 |
| 20260902101552 | 73 | 0 | 0.0 | 0.0 | 0.00 | 0.00 | 0.00 | 91 | 1018.1 |
| 20260902100108 | 73 | 0 | 0.0 | 0.0 | 0.00 | 0.00 | 0.00 | 91 | 1017.9 |
| 20260902094557 | 73 | 0 | 0.0 | 0.0 | 0.00 | 0.00 | 0.00 | 90 | 1018.0 |
| 20260902093110 | 73 | 0 | 0.0 | 0.0 | 0.00 | 0.00 | 0.00 | 90 | 1017.8 |
| 20260902091552 | 74 | 0 | 0.0 | 0.0 | 0.00 | 0.00 | 0.00 | 90 | 1017.8 |
| 20260902090050 | 74 | 0 | 0.0 | 0.0 | 0.00 | 0.00 | 0.00 | 89 | 1017.8 |
| 20260902084607 | 74 | 0 | 0.0 | 0.0 | 0.00 | 0.00 | 0.00 | 89 | 1017.7 |
| 20260902083108 | 74 | 0 | 0.0 | 0.0 | 0.00 | 0.00 | 0.00 | 88 | 1017.6 |
| 20260902081611 | 75 | 0 | 0.0 | 0.0 | 0.00 | 0.00 | 0.00 | 88 | 1017.5 |
| 20260902080107 | 75 | 0 | 0.0 | 0.0 | 0.00 | 0.00 | 0.00 | 87 | 1017.5 |
| 20260902074556 | 75 | 0 | 0.0 | 0.0 | 0.00 | 0.00 | 0.00 | 87 | 1017.6 |
| 20260902073055 | 76 | 0 | 0.0 | 0.0 | 0.00 | 0.00 | 0.00 | 87 | 1017.6 |
| 20260902071621 | 76 | 0 | 0.0 | 0.0 | 0.00 | 0.00 | 0.00 | 86 | 1017.8 |
| 20260902070104 | 76 | 0 | 0.0 | 0.0 | 0.00 | 0.00 | 0.00 | 86 | 1017.7 |
| 20260902064605 | 76 | 0 | 0.0 | 0.0 | 0.00 | 0.00 | 0.00 | 86 | 1017.8 |
| 20260902063112 | 76 | 0 | 0.0 | 0.0 | 0.00 | 0.00 | 0.00 | 86 | 1017.7 |
| 20260902061558 | 76 | 0 | 0.0 | 0.0 | 0.00 | 0.00 | 0.00 | 86 | 1017.7 |
| 20260902060134 | 76 | 0 | 0.0 | 0.0 | 0.00 | 0.00 | 0.00 | 85 | 1017.5 |
| 20260902054554 | 76 | 0 | 0.0 | 0.0 | 0.00 | 0.00 | 0.00 | 85 | 1017.5 |
| 20260902053053 | 76 | 0 | 0.0 | 0.0 | 0.00 | 0.00 | 0.00 | 85 | 1017.4 |
| 20260902051604 | 76 | 0 | 0.0 | 0.0 | 0.00 | 0.00 | 0.00 | 84 | 1017.2 |
| 20260902050056 | 76 | 0 | 0.0 | 0.0 | 0.00 | 0.00 | 0.00 | 83 | 1017.0 |
| 20260902044601 | 76 | 0 | 0.0 | 0.0 | 0.00 | 0.00 | 0.00 | 82 | 1017.0 |
| 20260902043110 | 77 | 0 | 0.0 | 0.0 | 0.00 | 0.00 | 0.00 | 82 | 1017.2 |
| 20260902041556 | 77 | 0 | 0.0 | 0.0 | 0.00 | 0.00 | 0.00 | 81 | 1017.1 |
| 20260902034553 | 77 | 0 | 0.0 | 0.0 | 0.00 | 0.00 | 0.00 | 80 | 1017.2 |
| 20260902033117 | 77 | 0 | 0.0 | 0.0 | 0.00 | 0.00 | 0.00 | 79 | 1017.1 |
| 20260902031601 | 78 | 0 | 0.0 | 0.0 | 0.00 | 0.00 | 0.00 | 78 | 1017.1 |
| 20260902030057 | 78 | 0 | 0.0 | 0.0 | 0.00 | 0.00 | 0.00 | 78 | 1016.8 |
| 20260902024607 | 79 | 0 | 0.0 | 0.0 | 0.00 | 0.00 | 0.00 | 76 | 1016.8 |
| 20260902023058 | 79 | 0 | 0.0 | 0.0 | 0.00 | 0.00 | 0.00 | 75 | 1016.7 |
| 20260902021601 | 80 | 0 | 0.0 | 0.0 | 0.00 | 0.00 | 0.00 | 74 | 1016.5 |
| 20260902020114 | 81 | 0 | 0.0 | 0.0 | 0.00 | 0.00 | 0.00 | 73 | 1016.3 |
| 20260902014600 | 82 | 0 | 0.0 | 0.0 | 0.00 | 0.00 | 0.00 | 72 | 1016.0 |
| 20260902013056 | 83 | 0 | 0.0 | 0.0 | 0.00 | 0.00 | 0.00 | 70 | 1015.9 |
| 20260902011553 | 85 | 0 | 0.0 | 0.0 | 0.00 | 0.00 | 0.00 | 67 | 1015.8 |
| 20260902010101 | 86 | 0 | 0.0 | 0.0 | 0.00 | 0.00 | 0.00 | 64 | 1015.9 |
| 20260902004601 | 88 | 0 | 0.0 | 1.0 | 0.00 | 0.00 | 0.00 | 62 | 1015.9 |
| 20260902003104 | 89 | 0 | 0.0 | 0.0 | 0.00 | 0.00 | 0.00 | 60 | 1016.0 |
| 20260902001553 | 91 | 0 | 0.0 | 0.0 | 0.00 | 0.00 | 0.00 | 58 | 1015.9 |
| 20260901234611 | 95 | 0 | 0.0 | 3.0 | 0.00 | 0.00 | 0.00 | 51 | 1016.2 |
| 20260901233056 | 96 | 140 | 0.0 | 7.0 | 0.00 | 0.00 | 0.00 | 50 | 1016.2 |